Volver al catálogo

NATO 3C

ActivoMilitarGEO
NORAD 11115·PAYLOAD· XX

Lanzado Nov 19, 1978 desde Cape Canaveral Space Force Station

Loading…

TLE

ActualizadoSource: Space-Track

Época: Sep 14, 2026, 04:30 UTC

1 11115U 78106A   26257.18769420 -.00000106  00000-0  00000-0 0  9998
2 11115   8.9810 314.9766 0004998 319.2060  78.6581  0.98481842656099

Sigue NATO 3C en tiempo real con AllMySat

Download on the App Store